Flag for U.S.A. Weather past 2 weeks in Flint, Michigan, U.S.A.

Now
51 °F

Overcast.


Feels Like: 47 °F
Forecast: 44 / 62 °F
Wind: 10 mph from Northwest

Location: Bishop International Airport

Current Time: Sep 22, 2014 at 10:48:19 AM

Latest Report: Sep 22, 2014 at 9:53 AM


Visibility: 10 mi

Pressure: 30.21 "Hg

Humidity: 69%

Dew point: 41 °F

Location of FlintLocation

Historic Weather in Flint — Graph

°F

Flint temperature yesterday

Maximum temperature yesterday: 67 °F (at 3:53 AM)
Minimum temperature yesterday: 50 °F (at 11:03 PM)
Average temperature yesterday: 60 °F

Past Weeks' High & Low Weather Summary

 TemperatureHumidityPressure
High81 °F (Sep 9, 3:53 PM)93% (Sep 13, 9:53 PM)30.36 "Hg (Sep 13, 9:53 PM)
Low37 °F (Sep 19, 4:53 AM)35% (Sep 8, 3:53 PM)29.53 "Hg (Sep 10, 7:53 PM)
Average59 °F74%30.08 "Hg
* Reported Sep 7 8:53 AM — Sep 22 8:53 AM, Flint, Weather by CustomWeather, © 2014

Note: Actual official high and low records may vary slightly from our data, if they occured in-between our weather recording intervals... More about our weather records

Advertising

Flint weather history for previous 24 hours

 ConditionsComfort  
Time TempWeatherWind HumidityBarometerVisibility
8:53 AM
Sep 22
49 °FOvercast.12 mph74%30.19 "Hg10 mi
7:53 AM48 °FOvercast.7 mph77%30.17 "Hg10 mi
6:53 AM48 °FOvercast.7 mph74%30.15 "Hg10 mi
5:53 AM49 °FOvercast.9 mph69%30.13 "Hg10 mi
4:53 AM49 °FOvercast.7 mph66%30.10 "Hg10 mi
3:53 AM49 °FOvercast.12 mph66%30.09 "Hg10 mi
2:53 AM49 °FOvercast.10 mph66%30.08 "Hg10 mi
1:53 AM49 °FOvercast.12 mph66%30.07 "Hg10 mi
12:53 AM49 °FOvercast.8 mph66%30.05 "Hg10 mi
11:53 PM
Sep 21
50 °FOvercast.14 mph66%30.04 "Hg10 mi
11:03 PM50 °FMostly cloudy.9 mph71%30.02 "Hg10 mi
10:53 PM51 °FOvercast.10 mph69%30.02 "Hg10 mi
9:53 PM52 °FOvercast.15 mph75%29.99 "Hg10 mi
8:53 PM53 °FMostly cloudy.17 mph80%29.95 "Hg10 mi
7:53 PM53 °FMostly cloudy.10 mph86%29.91 "Hg10 mi
6:53 PM54 °FMostly cloudy.12 mph83%29.89 "Hg10 mi
5:53 PM55 °FLight rain. Mostly cloudy.22 mph83%29.84 "Hg6 mi
4:53 PM58 °FLight rain. Fog.12 mph87%29.77 "Hg6 mi
4:02 PM58 °FLight rain. Mostly cloudy.16 mph84%29.73 "Hg3 mi
2:53 PM64 °FBroken clouds.17 mph73%29.67 "Hg10 mi
1:53 PM64 °FCloudy.13 mph68%29.66 "Hg10 mi
12:53 PM64 °FMostly cloudy.15 mph65%29.65 "Hg10 mi
11:53 AM66 °FPartly sunny.12 mph68%29.65 "Hg10 mi
10:53 AM64 °FPartly sunny.15 mph73%29.65 "Hg10 mi
Weather by CustomWeather, © 2014

See weather overviewHow to use our weather pages